This is the latest recevied weather packets stored in our database for station/object WR9A-13. If no packets are shown the sender has not sent any weather packets the latest 10 day(s).
| Time | Temp. | Humidity | Pressure | Rain* | Wind** | Luminosity | Snow |
|---|---|---|---|---|---|---|---|
| 1778171724 | 15° C | 45% | 1016.3 hPa | 0 mm | - | - | - |
| 1778171441 | 15° C | 42% | 1016.5 hPa | 0 mm | - | - | - |
| 1778171128 | 15° C | 45% | 1016.4 hPa | 0 mm | - | - | - |
| 1778170817 | 15° C | 48% | 1016.6 hPa | 0 mm | - | - | - |
| 1778170534 | 14.44° C | 46% | 1016.6 hPa | 0 mm | - | - | - |
| 1778170232 | 13.89° C | 46% | 1016.7 hPa | 0 mm | - | - | - |
| 1778169918 | 13.89° C | 47% | 1016.7 hPa | 0 mm | - | - | - |
| 1778169629 | 13.89° C | 46% | 1016.8 hPa | 0 mm | - | - | - |
| 1778169316 | 13.89° C | 45% | 1016.8 hPa | 0 mm | - | - | - |
| 1778169028 | 13.89° C | 47% | 1016.9 hPa | 0 mm | - | - | - |
| 1778168716 | 13.89° C | 45% | 1016.9 hPa | 0 mm | - | - | - |
| 1778168433 | 13.89° C | 44% | 1016.8 hPa | 0 mm | - | - | - |
| 1778168121 | 13.89° C | 48% | 1016.9 hPa | 0 mm | - | - | - |
| 1778167817 | 13.33° C | 48% | 1017 hPa | 0 mm | - | - | - |
| 1778167525 | 13.33° C | 46% | 1017.1 hPa | 0 mm | - | - | - |
| 1778167221 | 13.33° C | 47% | 1017 hPa | 0 mm | - | - | - |
| 1778166941 | 13.33° C | 49% | 1017 hPa | 0 mm | - | - | - |
| 1778166627 | 12.78° C | 50% | 1017 hPa | 0 mm | - | - | - |
| 1778166315 | 12.78° C | 49% | 1017.1 hPa | 0 mm | - | - | - |
| 1778166026 | 12.78° C | 50% | 1017 hPa | 0 mm | - | - | - |
| 1778165723 | 12.22° C | 48% | 1017 hPa | 0 mm | - | - | - |
| 1778165431 | 12.78° C | 48% | 1017.1 hPa | 0 mm | - | - | - |
| 1778165127 | 12.78° C | 46% | 1017 hPa | 0 mm | - | - | - |
| 1778164815 | 12.22° C | 50% | 1016.9 hPa | 0 mm | - | - | - |
| 1778164532 | 12.22° C | 51% | 1016.9 hPa | 0 mm | - | - | - |
* Rain latest hour (hover to see other rain measurements)
** Current wind speed in m/s (hover to see current wind gust speed)